Fairbanks, AK

4:40 AM AKDT on September 25, 2017 (GMT -0800)
Fairbanks International

Weather History for PAFA - May, 2013

Change the Weather History Date:

Sunday, May 19, 2013

  Actual Average Record
Temperature  
Mean Temperature 35 °F 51 °F  
Max Temperature 47 °F 62 °F 77 °F (1990)
Min Temperature 23 °F 39 °F 20 °F (1918)
Degree Days  
Heating Degree Days 30 14  
Month to date heating degree days 561 343  
Since 1 July heating degree days 14720 13367  
Cooling Degree Days 0 0  
Month to date cooling degree days 0 0  
Year to date cooling degree days 0 0  
Moisture  
Dew Point 10 °F    
Average Humidity 32    
Maximum Humidity 60    
Minimum Humidity 14    
Precipitation  
Precipitation 0.00 in 0.02 in 0.72 in (1959)
Month to date precipitation 0.15 0.33  
Year to date precipitation 2.34 1.89  
Snow  
Snow 0.00 in 0.00 in 0.10 in (1966)
Month to date snowfall 2.0 0.8  
Since 1 July snowfall 68.6 64.9  
Snow Depth 0.00 in    
Sea Level Pressure  
Sea Level Pressure 30.47 in    
Wind  
Wind Speed 7 mph (West)    
Max Wind Speed 12 mph    
Max Gust Speed 17 mph    
Visibility 10 miles    
Events      
T = Trace of Precipitation, MM = Missing Value Source: NWS Daily Summary

Daily Weather History Graph

Daily Weather History Graph

Search for Another Location

Airport or City:

Trip Planner

Search our weather history database for the weather conditions in past years. The results will help you decide how hot, cold, wet, or windy it might be!

Date:

Astronomy

May. 19, 2013 Rise Set
Actual Time 4:13 AM AKDT 11:24 PM AKDT
Civil Twilight 2:20 AM AKDT 1:15 AM AKDT
Nautical Twilight Sun does not set Sun does not set
Astronomical Twilight Sun does not set Sun does not set
Moon 3:19 PM AKDT (5/19) 3:11 AM AKDT (5/19)
Length of Visible Light 22h 55m
Length of Day
19h 11m
Waxing Gibbous, 66% of the Moon is Illuminated
May 19
Waxing Gibbous
May 24
Full
May 31
Last Quarter
Jun 8
New
Jun 16
First Quarter

Hourly Weather History & Observations

Time (AKDT) Temp. Windchill Dew Point Humidity Pressure Visibility Wind Dir Wind Speed Gust Speed Precip Events Conditions
12:53 AM 30.0 °F 22.4 °F 8.1 °F 40% 30.25 in 10.0 mi West 8.1 mph - N/A   Scattered Clouds
1:53 AM 28.9 °F 21.1 °F 7.0 °F 40% 30.28 in 10.0 mi WNW 8.1 mph - N/A   Scattered Clouds
2:53 AM 28.0 °F 20.0 °F 7.0 °F 41% 30.31 in 10.0 mi WNW 8.1 mph - N/A   Scattered Clouds
3:53 AM 26.1 °F 19.4 °F 9.0 °F 49% 30.34 in 10.0 mi West 5.8 mph - N/A   Mostly Cloudy
4:53 AM 25.0 °F - 10.9 °F 55% 30.37 in 10.0 mi Calm Calm - N/A   Mostly Cloudy
5:53 AM 23.0 °F 15.8 °F 10.9 °F 60% 30.40 in 10.0 mi WSW 5.8 mph - N/A   Scattered Clouds
6:53 AM 28.0 °F 24.2 °F 7.0 °F 41% 30.41 in 10.0 mi WSW 3.5 mph - N/A   Scattered Clouds
7:53 AM 30.0 °F 25.2 °F 6.1 °F 36% 30.43 in 10.0 mi Variable 4.6 mph - N/A   Scattered Clouds
8:53 AM 33.1 °F 24.4 °F 5.0 °F 31% 30.45 in 10.0 mi WNW 11.5 mph - N/A   Partly Cloudy
9:53 AM 34.0 °F 26.6 °F 5.0 °F 30% 30.47 in 10.0 mi West 9.2 mph - N/A   Partly Cloudy
10:53 AM 36.0 °F 31.1 °F 5.0 °F 27% 30.48 in 10.0 mi Variable 5.8 mph - N/A   Partly Cloudy
11:53 AM 37.9 °F 32.7 °F 5.0 °F 25% 30.50 in 10.0 mi WNW 6.9 mph - N/A   Partly Cloudy
12:53 PM 39.9 °F 34.5 °F 7.0 °F 26% 30.50 in 10.0 mi WSW 8.1 mph - N/A   Partly Cloudy
1:53 PM 41.0 °F 34.7 °F 8.1 °F 26% 30.51 in 10.0 mi West 10.4 mph 17.3 mph N/A   Partly Cloudy
2:53 PM 42.1 °F 37.1 °F 8.1 °F 25% 30.52 in 10.0 mi NNW 8.1 mph 17.3 mph N/A   Partly Cloudy
3:53 PM 43.0 °F 38.8 °F 10.0 °F 26% 30.53 in 10.0 mi WSW 6.9 mph - N/A   Partly Cloudy
4:53 PM 45.0 °F 39.7 °F 10.9 °F 25% 30.53 in 10.0 mi SW 10.4 mph 17.3 mph N/A   Partly Cloudy
5:53 PM 46.0 °F 41.4 °F 10.9 °F 24% 30.53 in 10.0 mi West 9.2 mph - N/A   Partly Cloudy
6:53 PM 46.9 °F - 12.0 °F 24% 30.53 in 10.0 mi WNW 10.4 mph - N/A   Partly Cloudy
7:53 PM 45.0 °F 40.1 °F 12.9 °F 27% 30.53 in 10.0 mi West 9.2 mph - N/A   Partly Cloudy
8:53 PM 45.0 °F 41.2 °F 14.0 °F 29% 30.55 in 10.0 mi WSW 6.9 mph - N/A   Partly Cloudy
9:53 PM 44.1 °F 42.5 °F 12.9 °F 28% 30.56 in 10.0 mi Variable 3.5 mph - N/A   Partly Cloudy
10:53 PM 41.0 °F - 14.0 °F 33% 30.58 in 10.0 mi Calm Calm - N/A   Partly Cloudy
10:58 PM 41.0 °F - 14.0 °F 33% 30.54 in 10.0 mi Calm Calm - N/A   Partly Cloudy
11:53 PM 35.1 °F 32.2 °F 19.9 °F 54% 30.58 in 10.0 mi South 3.5 mph - N/A   Partly Cloudy